Disclaimer

Please do not use the information listed here in-flight or in-navigation, as they are not provided to us by the airports but are provided by volunteers, so they might be outdated.

Search


Regions


Airport information page

Radio informations:
Automatic Terminal Information Service (ATIS) - 126.2 MHz

Airport informations:
Latitude: 53° 44' 24.00" N
Longitude: 091° 23' 06.00" E
Elevation: 831 feet - 253 meters
Operating hours: 24 hour operations
Operating agency: Civil government, landing fees and diplomatic clearance may be required
Timezone: UTC+7(+8DT) - Last Sunday in March to last Sunday in October
Fuel: N/A

Runway information:
02C/20C - 8202 x 263 feet< - >2500 x 80 meters
02R/20L - 10663 x 148 feet< - >3250 x 45 meters
02L/20R - 4265 x 92 feet< - >1300 x 28 meters

Recent METARs:
UNAA 170830Z 36001MPS 1600 R02/1700U BR FEW009 M12/M15 Q1030 R02/420149 NOSIG RMK QFE749
UNAA 170900Z 02002MPS 1700 R02/1600U BR FEW009 M13/M16 Q1030 R02/420149 NOSIG RMK QFE749
UNAA 170930Z 36002MPS 3000 BR NSC M13/M16 Q1030 R02/420149 NOSIG RMK QFE750

Airport on the map: